SCP
0 0 0 0 0 0 0 1 1 0 0 1 1 0 0 0 0 0 0 -0 0 0 0 0 0 0 0 0 0 0 0 0
0 0 0 0 0 0 0 1 1 1 0 1 1 0 1 0 0 1 1 0 1 0 0 0 0 0 0 0 0 0 0 0
0 0 0 0 0 0 1 1 2 2 2 1 1 1 1 1 0 1 1 1 1 0 0 0 0 0 0 0 0 0 0 0
0 0 0 0 0 0 1 1 2 3 2 1 4 3 1 1 1 1 1 2 3 1 1 0 0 0 0 0 0 0 0 0
0 0 0 0 0 0 0 2 3 5 4 3 3 2 2 2 1 3 3 4 5 2 1 1 0 1 2 1 0 0 0 0
0 0 0 0 0 0 0 1 2 5 6 6 4 4 4 4 3 3 5 4 5 4 1 1 1 1 1 1 0 0 0 0
0 0 0 0 0 0 0 1 1 5 6 6 4 3 4 4 5 2 3 3 4 5 3 2 3 1 1 1 1 1 0 1
0 0 0 0 0 0 0 1 4 3 4 5 5 3 4 4 4 4 4 4 2 2 2 2 3 2 1 1 1 1 1 1
0 0 0 0 0 0 0 1 2 5 3 2 3 3 3 4 4 4 4 5 3 3 4 4 4 2 2 4 2 3 2 2
0 0 0 0 0 0 0 0 1 2 6 7 6 5 5 5 4 3 5 6 4 4 5 4 5 3 4 5 4 3 2 2
0 0 0 0 0 0 0 1 0 1 2 3 4 5 7 8 8 7 6 5 4 3 3 4 6 4 3 6 8 7 3 2
0 0 0 0 0 0 0 0 1 1 1 3 4 3 5 6 9 6 8 7 6 5 4 5 8 6 6 10 8 9 5 5
0 0 0 0 0 0 0 1 1 1 2 3 5 7 3 5 7 7 8 7 6 4 4 5 6 6 6 7 6 5 4 3
0 0 0 0 0 0 0 1 1 1 1 2 5 6 6 6 6 7 7 7 6 5 4 5 7 6 7 6 7 7 5 6
0 0 0 0 0 0 0 0 0 1 1 2 4 5 7 6 8 6 6 7 8 7 6 6 5 7 6 7 7 7 5 4
0 0 0 0 0 0 0 0 0 1 1 2 2 4 8 9 9 9 6 6 7 8 8 10 7 6 6 7 6 6 4 4
0 0 0 0 0 0 0 0 0 0 1 2 3 3 4 5 6 7 10 12 5 7 5 7 6 7 7 7 5 5 5 4
0 0 0 0 0 0 0 0 0 0 0 1 2 1 3 3 4 5 4 8 8 12 17 6 5 4 4 5 4 3 4 3
0 0 0 0 0 0 0 0 0 0 0 1 2 3 2 3 3 1 2 12 10 5 8 4 3 3 4 5 5 4 4 4
0 0 0 0 0 0 0 0 0 0 0 0 1 3 2 3 2 -0 -1 2 3 3 3 2 2 2 4 4 3 3 4 4
Wind_Speed_500mb
27 24 23 30 34 31 31 34 36 37 38 39 36 42 45 51 52 51 55 42 37 37 32 43 41 39 35 32 30 27 21 13
39 36 31 30 35 37 35 38 40 45 39 43 36 45 46 46 50 53 47 49 45 38 37 26 41 32 35 24 22 21 19 24
40 41 38 32 34 37 43 42 47 47 57 44 45 44 47 45 47 55 55 51 49 46 41 35 33 33 29 29 26 24 25 25
35 39 39 34 35 39 43 44 49 54 50 55 54 52 48 50 51 54 63 55 55 48 51 48 38 35 33 29 28 25 24 20
36 35 38 30 29 36 38 49 50 62 62 58 51 49 52 50 52 56 64 69 59 67 52 48 44 41 44 42 39 33 27 21
36 33 33 31 29 27 34 45 49 61 67 65 61 56 58 57 62 59 70 72 68 67 50 50 44 48 43 48 43 32 27 24
30 32 34 31 28 27 26 36 46 57 64 63 57 58 58 58 59 60 68 79 78 75 68 52 51 44 46 42 38 36 28 30
35 34 34 35 31 32 35 36 42 50 51 58 66 59 62 62 63 60 65 68 72 81 65 61 68 61 46 46 43 40 34 34
35 37 38 40 38 33 36 44 41 52 56 55 58 60 60 65 70 68 66 72 67 74 80 61 63 59 61 55 51 51 38 38
40 39 40 40 42 44 39 36 42 50 70 71 72 66 62 64 63 69 76 73 68 71 74 69 67 64 62 57 63 50 46 44
44 45 46 42 42 45 49 48 41 43 60 58 63 59 67 63 71 67 72 78 71 71 66 76 67 68 58 64 61 65 48 44
38 42 40 34 36 36 41 45 52 46 46 65 67 67 68 77 76 67 70 79 81 74 75 73 80 56 62 54 58 56 58 46
32 33 37 37 39 40 43 49 56 55 48 59 75 79 70 63 65 66 71 66 68 69 67 69 63 70 59 68 60 59 53 56
30 29 26 29 35 38 41 45 51 52 55 53 70 84 82 69 71 71 69 68 64 62 68 67 67 60 63 63 65 59 57 59
35 33 41 36 41 42 44 44 46 48 53 53 62 78 86 83 74 71 66 60 57 58 64 65 57 58 57 58 55 58 56 57
34 36 37 43 43 42 44 44 47 46 49 55 58 76 81 91 86 69 77 58 61 54 56 61 58 56 57 52 56 56 60 59
39 42 41 40 42 42 42 45 48 47 45 53 58 71 74 83 86 83 67 80 76 64 57 50 53 54 50 49 52 54 57 60
34 41 40 42 42 42 40 40 41 45 42 42 50 52 66 78 88 92 108 106 70 62 102 67 59 56 55 55 48 48 53 51
41 42 43 44 46 43 42 42 39 38 37 36 40 43 44 60 76 88 72 39 58 56 29 43 51 52 53 56 56 53 54 56
43 46 48 50 49 47 44 43 38 35 33 27 32 32 38 45 32 29 51 45 57 48 49 47 45 45 47 49 48 50 52 52
Wind_Direction_500mb
262 253 259 241 219 219 215 209 205 204 202 212 212 207 210 215 214 216 218 217 208 214 218 228 222 220 222 226 230 234 241 239
254 252 249 246 239 221 219 218 211 207 207 212 216 208 210 209 212 214 211 205 208 209 207 219 226 221 221 230 234 238 249 239
254 250 252 252 247 225 223 219 223 214 200 214 214 212 216 210 212 218 206 207 209 208 209 206 219 206 229 207 224 241 243 255
255 251 249 251 249 237 229 226 222 228 219 204 222 213 216 212 212 213 217 210 211 211 204 208 210 212 210 216 216 229 252 248
257 254 247 246 254 247 238 231 226 232 233 224 215 217 213 220 208 217 226 210 214 215 215 212 209 213 204 211 210 228 231 236
258 256 248 260 264 260 248 223 227 233 235 228 222 221 217 212 224 210 225 226 208 224 215 218 211 216 218 218 227 219 230 235
250 250 254 258 262 263 249 241 228 223 234 235 233 219 221 217 220 215 223 230 222 225 220 217 219 216 214 219 219 217 221 229
254 253 255 265 272 267 268 255 240 240 232 240 233 222 224 222 221 226 223 233 236 225 215 216 229 227 225 226 218 223 215 227
262 259 262 268 274 282 287 277 258 235 234 230 231 227 224 228 217 217 217 229 235 228 223 218 221 225 217 223 226 220 223 225
272 269 270 268 271 281 285 283 272 254 233 230 228 228 222 225 226 220 215 217 220 227 221 211 221 221 221 216 230 223 228 219
279 278 275 274 277 278 283 286 285 261 247 237 235 229 221 218 220 220 223 220 224 227 225 210 216 227 222 225 224 231 214 225
298 288 289 298 306 295 289 286 285 282 261 241 236 230 223 223 220 220 218 222 220 222 220 224 207 218 219 221 228 227 222 218
328 315 308 306 301 298 292 288 285 284 272 244 238 236 234 229 220 219 220 224 225 217 223 219 225 213 223 218 226 227 229 213
307 301 297 300 306 307 307 301 287 278 273 259 243 232 235 231 226 221 217 215 225 216 215 221 221 220 216 232 236 239 221 218
302 304 304 306 300 304 309 314 305 283 269 264 246 243 231 232 229 225 215 212 211 213 206 212 217 221 213 222 235 227 223 231
313 310 309 309 308 306 309 320 317 301 271 258 253 243 238 232 229 227 226 212 205 210 212 208 213 215 215 218 224 225 232 226
306 306 305 303 309 308 310 313 321 317 284 265 254 250 240 234 232 223 224 211 221 184 217 215 209 209 216 222 220 233 227 242
302 305 302 302 300 303 309 314 315 319 311 274 262 255 251 240 233 227 223 203 201 199 212 209 209 211 217 224 224 234 243 241
306 302 303 300 300 301 305 311 309 317 316 294 273 260 258 251 245 240 239 188 188 203 197 191 203 208 216 223 223 227 235 237
301 301 302 299 299 299 301 303 310 307 316 306 287 280 256 252 248 264 241 195 196 190 192 194 200 208 213 220 230 228 230 232
Wind_Speed_850mb
27 24 23 30 34 31 31 34 36 37 38 39 36 42 45 51 52 51 55 42 37 37 32 43 41 39 35 32 30 27 21 13
39 36 31 30 35 37 35 38 40 45 39 43 36 45 46 46 50 53 47 49 45 38 37 26 41 32 35 24 22 21 19 24
40 41 38 32 34 37 43 42 47 47 57 44 45 44 47 45 47 55 55 51 49 46 41 35 33 33 29 29 26 24 25 25
35 39 39 34 35 39 43 44 49 54 50 55 54 52 48 50 51 54 63 55 55 48 51 48 38 35 33 29 28 25 24 20
36 35 38 30 29 36 38 49 50 62 62 58 51 49 52 50 52 56 64 69 59 67 52 48 44 41 44 42 39 33 27 21
36 33 33 31 29 27 34 45 49 61 67 65 61 56 58 57 62 59 70 72 68 67 50 50 44 48 43 48 43 32 27 24
30 32 34 31 28 27 26 36 46 57 64 63 57 58 58 58 59 60 68 79 78 75 68 52 51 44 46 42 38 36 28 30
35 34 34 35 31 32 35 36 42 50 51 58 66 59 62 62 63 60 65 68 72 81 65 61 68 61 46 46 43 40 34 34
35 37 38 40 38 33 36 44 41 52 56 55 58 60 60 65 70 68 66 72 67 74 80 61 63 59 61 55 51 51 38 38
40 39 40 40 42 44 39 36 42 50 70 71 72 66 62 64 63 69 76 73 68 71 74 69 67 64 62 57 63 50 46 44
44 45 46 42 42 45 49 48 41 43 60 58 63 59 67 63 71 67 72 78 71 71 66 76 67 68 58 64 61 65 48 44
38 42 40 34 36 36 41 45 52 46 46 65 67 67 68 77 76 67 70 79 81 74 75 73 80 56 62 54 58 56 58 46
32 33 37 37 39 40 43 49 56 55 48 59 75 79 70 63 65 66 71 66 68 69 67 69 63 70 59 68 60 59 53 56
30 29 26 29 35 38 41 45 51 52 55 53 70 84 82 69 71 71 69 68 64 62 68 67 67 60 63 63 65 59 57 59
35 33 41 36 41 42 44 44 46 48 53 53 62 78 86 83 74 71 66 60 57 58 64 65 57 58 57 58 55 58 56 57
34 36 37 43 43 42 44 44 47 46 49 55 58 76 81 91 86 69 77 58 61 54 56 61 58 56 57 52 56 56 60 59
39 42 41 40 42 42 42 45 48 47 45 53 58 71 74 83 86 83 67 80 76 64 57 50 53 54 50 49 52 54 57 60
34 41 40 42 42 42 40 40 41 45 42 42 50 52 66 78 88 92 108 106 70 62 102 67 59 56 55 55 48 48 53 51
41 42 43 44 46 43 42 42 39 38 37 36 40 43 44 60 76 88 72 39 58 56 29 43 51 52 53 56 56 53 54 56
43 46 48 50 49 47 44 43 38 35 33 27 32 32 38 45 32 29 51 45 57 48 49 47 45 45 47 49 48 50 52 52
Wind_Direction_850mb
262 253 259 241 219 219 215 209 205 204 202 212 212 207 210 215 214 216 218 217 208 214 218 228 222 220 222 226 230 234 241 239
254 252 249 246 239 221 219 218 211 207 207 212 216 208 210 209 212 214 211 205 208 209 207 219 226 221 221 230 234 238 249 239
254 250 252 252 247 225 223 219 223 214 200 214 214 212 216 210 212 218 206 207 209 208 209 206 219 206 229 207 224 241 243 255
255 251 249 251 249 237 229 226 222 228 219 204 222 213 216 212 212 213 217 210 211 211 204 208 210 212 210 216 216 229 252 248
257 254 247 246 254 247 238 231 226 232 233 224 215 217 213 220 208 217 226 210 214 215 215 212 209 213 204 211 210 228 231 236
258 256 248 260 264 260 248 223 227 233 235 228 222 221 217 212 224 210 225 226 208 224 215 218 211 216 218 218 227 219 230 235
250 250 254 258 262 263 249 241 228 223 234 235 233 219 221 217 220 215 223 230 222 225 220 217 219 216 214 219 219 217 221 229
254 253 255 265 272 267 268 255 240 240 232 240 233 222 224 222 221 226 223 233 236 225 215 216 229 227 225 226 218 223 215 227
262 259 262 268 274 282 287 277 258 235 234 230 231 227 224 228 217 217 217 229 235 228 223 218 221 225 217 223 226 220 223 225
272 269 270 268 271 281 285 283 272 254 233 230 228 228 222 225 226 220 215 217 220 227 221 211 221 221 221 216 230 223 228 219
279 278 275 274 277 278 283 286 285 261 247 237 235 229 221 218 220 220 223 220 224 227 225 210 216 227 222 225 224 231 214 225
298 288 289 298 306 295 289 286 285 282 261 241 236 230 223 223 220 220 218 222 220 222 220 224 207 218 219 221 228 227 222 218
328 315 308 306 301 298 292 288 285 284 272 244 238 236 234 229 220 219 220 224 225 217 223 219 225 213 223 218 226 227 229 213
307 301 297 300 306 307 307 301 287 278 273 259 243 232 235 231 226 221 217 215 225 216 215 221 221 220 216 232 236 239 221 218
302 304 304 306 300 304 309 314 305 283 269 264 246 243 231 232 229 225 215 212 211 213 206 212 217 221 213 222 235 227 223 231
313 310 309 309 308 306 309 320 317 301 271 258 253 243 238 232 229 227 226 212 205 210 212 208 213 215 215 218 224 225 232 226
306 306 305 303 309 308 310 313 321 317 284 265 254 250 240 234 232 223 224 211 221 184 217 215 209 209 216 222 220 233 227 242
302 305 302 302 300 303 309 314 315 319 311 274 262 255 251 240 233 227 223 203 201 199 212 209 209 211 217 224 224 234 243 241
306 302 303 300 300 301 305 311 309 317 316 294 273 260 258 251 245 240 239 188 188 203 197 191 203 208 216 223 223 227 235 237
301 301 302 299 299 299 301 303 310 307 316 306 287 280 256 252 248 264 241 195 196 190 192 194 200 208 213 220 230 228 230 232